Location: Chagrin Falls Park
(41.4139°N, 81.3865°W)
Time: 07:59:16
(UTC+00:00)

STARLINK-2727 - Pass Details

Date: 14 December 2021
Orbit: 546 x 548 km, 53.1° (Epoch: 22 January)

Event Time Altitude Azimuth Distance (km) Brightness Sun altitude
Rises 22:43:55 0° 311° (NW) 2,721 7.5 -8.7°
Reaches altitude 10° 22:46:18 10° 320° (NW) 1,825 6.5 -9.1°
Maximum altitude 22:50:09 37° 28° (NNE) 867 4.2 -9.8°
Enters shadow 22:53:47 11° 95° (E) 1,734 5.6 -10.4°
